Content
SEND FEEDBACK

Daily
Averages
Monthly
Summary
United States of America

NEW YORK - CENTRAL PARK, NEW YORK


Home > North America > United States > New York
Elevation: 14 feet     Latitude: 40 47N     Longitude: 073 58W

WEATHER
 
SELECT A DAY
Number of Records: 151,321;   Date Range: 11/1/95 - 10/24/14
 
SHARE

PRINT THIS DATA

[ ← Previous Day ]
WEATHER ALMANAC - JULY 30, 2014
[ Next Day → ]
[ °C ]   °F
Weather ElementAverageHighLow
Temperature71.3 °F79 °F (12:51 pm)63 °F (6:51 am)
Dewpoint52.1 °F57 °F (2:51 pm)45 °F (9:51 am)
Humidity52.2 %70 % (6:51 am)30 % (4:51 pm)
Barometer30.01 in30.04 in (4:51 am)29.97 in (10:51 am)
Wind Speed3 mph6.9 mph (3:51 pm)
Weather ElementAverage
Visibility10 mi
Wind DirectionENE (59.6 °)

Weather ElementTotal
Precipitation---
Cooling Degree Days6 (Base 65)
Growing Degree Days21 (Base 50)
Averaged from 24 records on July 30, 2014
WEATHER CONDITIONS BREAKOUT
WIND DIRECTION BREAKOUT
WEATHER BY HOUR - JULY 30, 2014
[ °C ]   °F
Local TimeTemperatureDewpointHumidityBarometerVisibilityWind DirectionWind SpeedGust SpeedPrecipitationEventsConditions
12:51 AM66.9 °F52.0 °F59 %29.99 in10.0 miWNW (290°)3.5 mphScattered Clouds
1:51 AM66.0 °F51.1 °F59 %29.98 in10.0 miCalmMostly Cloudy
2:51 AM66.0 °F52.0 °F60 %29.97 in10.0 miCalmOvercast
3:51 AM66.0 °F52.0 °F60 %29.97 in10.0 miWNW (300°)4.6 mphOvercast
4:51 AM64.0 °F53.1 °F67 %29.99 in10.0 miVariable4.6 mphClear
5:51 AM63.0 °F53.1 °F70 %29.99 in10.0 miVariable6.9 mphClear
6:51 AM63.0 °F53.1 °F70 %30.02 in10.0 miCalmClear
7:51 AM64.9 °F55.0 °F70 %30.03 in10.0 miVariable3.5 mphClear
8:51 AM68.0 °F53.1 °F59 %30.04 in10.0 miVariable3.5 mphClear
9:51 AM70.0 °F52.0 °F53 %30.04 in10.0 miCalmClear
10:51 AM73.0 °F51.1 °F46 %30.03 in10.0 miVariable4.6 mphClear
11:51 AM75.9 °F48.0 °F37 %30.03 in10.0 miWest (280°)4.6 mphClear
12:51 PM78.1 °F45.0 °F31 %30.01 in10.0 miVariable5.8 mphClear
1:51 PM79.0 °F45.0 °F30 %30.01 in10.0 miWNW (300°)4.6 mphClear
2:51 PM78.1 °F48.0 °F35 %30.00 in10.0 miVariable4.6 mphMostly Cloudy
3:51 PM78.1 °F50.0 °F37 %30.00 in10.0 miCalmMostly Cloudy
4:51 PM77.0 °F53.1 °F43 %30.01 in10.0 miVariable3.5 mphMostly Cloudy
5:51 PM78.1 °F51.1 °F39 %30.00 in10.0 miWest (260°)4.6 mphMostly Cloudy
6:51 PM75.0 °F54.0 °F48 %30.01 in10.0 miVariable3.5 mphClear
7:51 PM73.0 °F55.0 °F53 %30.02 in10.0 miVariable3.5 mphClear
8:51 PM72.0 °F55.0 °F55 %30.04 in10.0 miCalmClear
9:51 PM72.0 °F55.0 °F55 %30.04 in10.0 miCalmClear
10:51 PM72.0 °F55.9 °F57 %30.04 in10.0 miVariable5.8 mphClear
11:51 PM72.0 °F57.0 °F59 %30.04 in10.0 miCalmClear
Hourly data recorded from KNYC, located miles away from New York - Central Park, New York







STORIES FROM OUR PARTNERS